Zahedan

Iran     29˚29′25″N   60˚50′31″E
temp.,
°C
wind,
m/s
gust,
m/s
humid.,
%
clouds,
%
prec.,
mm/h
press.,
hPa
HPBL,
m
29 november, sun
sun2900:30+7˚e114489 0.0 102322
03:30+6˚e114347 0.0 102322
06:30+6˚ese114582 0.0 102422
09:30+13˚se122490 0.0 1024216
12:30+18˚e23157 0.0 1020710
15:30+15˚ene332732 0.0 1019243
18:30+11˚ese1138100 0.0 102056
21:30+11˚se1237100 0.0 102023
30 november, mon
mon3000:30+11˚se1233100 0.0 101922
03:30+11˚e1233100 0.0 101923
06:30+10˚sse223083 0.0 101922
09:30+18˚sse241365 0.0 1020531
12:30+21˚sw561094 0.0 10171038
15:30+20˚sw241370 0.0 1016560
18:30+14˚ssw12240 0.0 101823
21:30+12˚ssw23230 0.0 101823
1 december, tue
tue100:30+11˚ssw33230 0.0 101823
03:30+10˚ssw23230 0.0 101822
06:30+10˚ssw23240 0.0 102022
09:30+18˚ssw46140 0.0 1020780
12:30+20˚sw45110 0.0 10181323
15:30+19˚sw24120 0.0 1016647
18:30+12˚ese12290 0.0 101823
21:30+12˚ssw22250 0.0 101922
2 december, wed
wed200:30+11˚sw23220 0.0 101923
03:30+10˚ssw23210 0.0 101823
06:30+9˚sw12210 0.0 102023
09:30+18˚s23120 0.0 1021569
12:30+20˚sw44120 0.0 10171389
15:30+19˚ssw13150 0.0 1016656
18:30+13˚ese12290 0.0 101723
21:30+12˚s22270 0.0 101823
3 december, thu
thu300:30+12˚sw22260 0.0 101723
03:30+11˚sw22280 0.0 101623
06:30+11˚ssw22280 0.0 101723
09:30+19˚ssw36190 0.0 1018762
12:30+22˚sw561124 0.0 10141208
15:30+21˚sw361532 0.0 1013815
18:30+14˚ese01280 0.0 101523
21:30+13˚ssw01310 0.0 101523